Вернуться в каталог

BRO-17

АктивенНаукаSSO
NORAD 66672·PAYLOAD·🇫🇷 France

Запущен Nov 28, 2025 с Vandenberg Space Force Base

Loading…

Ближайшие Пролёты (ближайшие 24 часа)

TLE

СвежийSource: Space-Track

Эпоха: Sep 13, 2026, 18:18 UTC

1 66672U 25276G   26256.76289230  .00001981  00000-0  99427-4 0  9991
2 66672  97.4121 328.1404 0008017  60.6071 299.5963 15.18445071 43838

Отслеживайте BRO-17 в реальном времени с AllMySat

Download on the App Store